Tracking 31027 objects as of 19-Jul-2025
HD Live streaming from Space Station
objects crossing your sky now

STARLINK-31620

Track STARLINK-31620 now!
10-day predictions


NORAD ID: 59460
Int'l Code: 2024-068F
Perigee: 489.2 km
Apogee: 491.1 km
Inclination: 43.0 °
Period: 94.3 minutes
Semi major axis: 6861 km
RCS: Unknown
Launch date: April 10, 2024
Source: United States (US)
Launch site: AIR FORCE EASTERN TEST RANGE (AFETR)
Your satellite tracking list
Your tracking list is empty




NASA's NSSDC Master Catalog

Two Line Element Set (TLE):
1 59460U 24068F   25199.48132902  .00000909  00000-0  42553-4 0  9990
2 59460  43.0000 273.7443 0001404 252.7129 107.3569 15.27582557 72748
Source of the keplerian elements: AFSPC